Location: ?ejeti?ky
(50.4060°N, 14.9016°E)
Time: 11:14:02
(UTC+00:00)

STARLINK-1282 - Pass Details

Date: 06 October 2020
Orbit: 549 x 550 km, 53.0° (Epoch: 21 October)

Event Time Altitude Azimuth Distance (km) Brightness Sun altitude
Exits shadow 02:20:08 23° 127° (SE) 1,183 5.5 -27.0°
Drops below altitude 10° 02:23:01 10° 84° (E) 1,825 7.1 -26.5°
Sets 02:25:33 0° 71° (ENE) 2,722 8.5 -26.2°
